Location: Wildlife_Club
(35.6000°N, 81.4330°W)
Time: 14:48:26
(UTC-05:00)

Amateur Radio Satellites - All Passes

Search period start: 21 January 2017 14:18
Search period end: 22 January 2017 14:18
Location: Wildlife_Club, 35.6000°N, 81.4330°W

Satellite Date Start Highest point End Downlink Frequencies (MHz)
Time Altitude Azimuth
UKube-1 21 Jan 14:28:01 14:30:38 16° 293° (WNW) 14:33:16 .
ITAMSAT 1 21 Jan 14:31:16 14:36:17 54° 73° (ENE) 14:41:19 435.822/435.867
DX 1 21 Jan 14:32:31 14:33:37 11° 296° (WNW) 14:34:43 434.975-435.025
AIST 1 21 Jan 14:43:01 14:46:59 33° 282° (WNW) 14:50:55
ITUPSAT 1 21 Jan 14:48:15 14:52:50 43° 99° (E) 14:57:24 437.325
Cosmos 2504 21 Jan 14:48:18 14:56:52 62° 92° (E) 15:04:57 435.465 / 435.565
CUSAT 1 21 Jan 14:53:37 15:01:28 63° 267° (W) 15:08:27 437.405
AO-85 21 Jan 14:55:07 14:58:35 20° 308° (NW) 15:01:53 145.980
MOZHAYETS 4 21 Jan 15:08:15 15:11:45 21° 95° (E) 15:15:15
O/OREOS (USA 219) 21 Jan 15:13:51 15:15:57 13° 57° (ENE) 15:18:03 437.305
BEESAT 21 Jan 15:21:59 15:26:46 79° 285° (WNW) 15:31:33 436.000
SWISSCUBE 21 Jan 15:23:46 15:28:32 67° 286° (WNW) 15:33:17 437.505
BEESAT 3 21 Jan 15:26:48 15:30:05 27° 112° (ESE) 15:33:24 437.485
JUGNU 21 Jan 15:27:18 15:30:56 17° 180° (S) 15:34:35 437.505
BRITE-PL 21 Jan 15:30:00 15:33:52 19° 66° (ENE) 15:37:43 437.365/2234.400
KKS-1 21 Jan 15:40:52 15:42:49 13° 93° (E) 15:44:46 437.445
AO-7 21 Jan 15:48:24 15:56:31 55° 257° (WSW) 16:04:43 29.400- 29.500
DANDE 21 Jan 15:53:53 16:01:48 62° 266° (W) 16:09:55 436.750
M-CUBED/EXP-1 PRIME 21 Jan 16:01:06 16:03:24 18° 100° (E) 16:05:40 437.505
SO-50 21 Jan 16:04:59 16:08:32 22° 51° (NE) 16:12:03 436.795
ITAMSAT 1 21 Jan 16:13:08 16:16:02 15° 267° (W) 16:18:56 435.822/435.867
BEESAT 2 21 Jan 16:13:44 16:17:23 38° 114° (ESE) 16:21:05 435.950
YUBILEINY 21 Jan 16:15:35 16:22:07 23° 291° (WNW) 16:28:44 435.215
ITUPSAT 1 21 Jan 16:27:07 16:30:18 18° 294° (WNW) 16:33:28 437.325
STARS 21 Jan 16:29:35 16:32:50 20° 95° (E) 16:36:03 437.465
AUBIESAT-1 21 Jan 16:35:57 16:39:08 43° 104° (ESE) 16:42:17 437.475
Cubesat XI-IV 21 Jan 16:36:35 16:38:56 13° 62° (ENE) 16:41:18 437.490
NOAA 15 21 Jan 16:40:26 16:43:28 16° 63° (ENE) 16:46:29 137.62
Cosmos 2504 21 Jan 16:43:51 16:50:37 25° 288° (WNW) 16:57:09 435.465 / 435.565
MOZHAYETS 4 21 Jan 16:44:47 16:48:55 32° 289° (WNW) 16:53:02
O/OREOS (USA 219) 21 Jan 16:51:16 16:55:41 55° 253° (WSW) 17:00:06 437.305
NOAA 18 21 Jan 16:52:37 16:53:20 10° 59° (ENE) 16:54:02 137.9125
SRMSAT 21 Jan 16:59:01 17:02:34 16° 174° (S) 17:06:08 437.500
GOMX 1 21 Jan 17:04:14 17:09:34 60° 75° (ENE) 17:14:41 467.674
BEESAT 3 21 Jan 17:04:39 17:07:39 21° 308° (NW) 17:10:42 437.485
BRITE-PL 21 Jan 17:06:15 17:11:50 56° 261° (W) 17:17:23 437.365/2234.400
KKS-1 21 Jan 17:15:20 17:19:36 48° 287° (WNW) 17:23:50 437.445
JUGNU 21 Jan 17:16:23 17:19:11 14° 190° (S) 17:22:00 437.505
HORYU 2 21 Jan 17:19:39 17:24:02 79° 256° (WSW) 17:28:27 437.375
LilacSat-2 21 Jan 17:26:41 17:30:08 35° 73° (ENE) 17:33:37 437.200
CUTE-I 21 Jan 17:29:46 17:34:46 44° 71° (ENE) 17:39:47 437.470
CUBESAT XI-V 21 Jan 17:33:24 17:38:04 68° 284° (WNW) 17:42:40 437.345
M-CUBED/EXP-1 PRIME 21 Jan 17:35:30 17:37:48 18° 295° (WNW) 17:40:04 437.505
DOVE 4 21 Jan 17:37:30 17:42:20 50° 75° (ENE) 17:46:56 437.250
SO-50 21 Jan 17:44:59 17:49:03 34° 247° (WSW) 17:53:04 436.795
BEESAT 2 21 Jan 17:52:46 17:55:19 16° 310° (NW) 17:57:53 435.950
HO-68 21 Jan 18:01:07 18:06:32 24° 61° (ENE) 18:11:59 435.675
STARS 21 Jan 18:05:21 18:09:09 30° 290° (WNW) 18:12:56 437.465
Cubesat XI-IV 21 Jan 18:13:03 18:18:21 72° 258° (WSW) 18:23:40 437.490
NOAA 15 21 Jan 18:17:27 18:22:40 60° 259° (WSW) 18:27:56 137.62
CUTE 1.7 + AOD 2 21 Jan 18:20:18 18:22:45 15° 67° (ENE) 18:25:13 437.475
AIST 2 21 Jan 18:23:50 18:26:36 18° 110° (ESE) 18:29:23 435.215
NOAA 18 21 Jan 18:27:37 18:33:07 86° 74° (ENE) 18:38:38 137.9125
GOMX 1 21 Jan 18:44:55 18:47:51 15° 268° (W) 18:50:45 467.674
SRMSAT 21 Jan 18:47:21 18:51:00 17° 185° (S) 18:54:39 437.500
CANX-2 21 Jan 18:48:07 18:52:02 37° 73° (ENE) 18:55:59 2200.000
SEEDS 21 Jan 18:56:50 19:00:21 26° 71° (ENE) 19:03:53 437.485
CINEMA 3 21 Jan 18:57:05 19:01:32 80° 76° (ENE) 19:05:50 145.822/145.860
Cosmos 2499 21 Jan 18:58:40 19:06:13 37° 88° (E) 19:13:18 435.465 / 435.565
COMPASS 1 21 Jan 19:00:21 19:03:15 19° 69° (ENE) 19:06:10 437.405
LilacSat-2 21 Jan 19:03:03 19:04:33 12° 267° (W) 19:06:02 437.200
GONETS M04 21 Jan 19:04:50 19:12:15 33° 85° (E) 19:19:42
AAUSAT CUBESAT 2 21 Jan 19:10:18 19:13:09 18° 69° (ENE) 19:16:01 437.432
CUTE-I 21 Jan 19:11:11 19:14:57 20° 266° (W) 19:18:45 437.470
DOVE 4 21 Jan 19:17:20 19:20:10 15° 267° (W) 19:22:57 437.250
Oscar 11 21 Jan 19:26:03 19:26:11 10° 64° (ENE) 19:26:18 145.826/435.025
CUBEBUG 2 21 Jan 19:42:58 19:47:03 55° 75° (ENE) 19:51:06 437.445
HO-68 21 Jan 19:46:36 19:53:41 61° 258° (WSW) 20:00:49 435.675
STRAND 1 21 Jan 19:50:13 19:55:23 83° 103° (ESE) 20:00:32 437.568
CUTE 1.7 + AOD 2 21 Jan 19:54:15 19:58:13 39° 262° (W) 20:02:13 437.475
FUNcube-1 21 Jan 20:00:42 20:04:12 27° 71° (ENE) 20:07:43 145.935
AIST 2 21 Jan 20:01:01 20:04:46 34° 305° (NW) 20:08:36 435.215
UWE-3 21 Jan 20:08:24 20:12:30 68° 76° (ENE) 20:16:37 435.000/436.395/437.385
DELFI C3 21 Jan 20:16:41 20:18:06 12° 66° (ENE) 20:19:32 145.870
ZACube-1 21 Jan 20:23:59 20:28:02 59° 75° (ENE) 20:32:08 437.345
CANX-2 21 Jan 20:25:31 20:28:00 15° 267° (W) 20:30:29 2200.000
SEEDS 21 Jan 20:32:44 20:35:58 21° 265° (W) 20:39:14 437.485
COMPASS 1 21 Jan 20:34:51 20:38:32 30° 263° (W) 20:42:16 437.405
SRMSAT 21 Jan 20:38:07 20:39:23 11° 194° (SSW) 20:40:40 437.500
AAUSAT CUBESAT 2 21 Jan 20:44:40 20:48:21 31° 263° (W) 20:52:05 437.432
ISS 21 Jan 20:50:12 20:52:49 23° 130° (SE) 20:55:28 145.825
Cosmos 2499 21 Jan 20:51:23 20:59:10 40° 283° (WNW) 21:06:30 435.465 / 435.565
Oscar 11 21 Jan 20:57:27 21:01:43 63° 259° (W) 21:06:01 145.826/435.025
GONETS M04 21 Jan 21:00:24 21:08:40 47° 283° (WNW) 21:17:03
UNISAT 6 21 Jan 21:25:16 21:27:11 12° 92° (E) 21:29:07 437.425
RS-15 21 Jan 21:28:58 21:35:27 17° 97° (E) 21:42:03 29.354- 29.394
STRAND 1 21 Jan 21:32:46 21:33:48 11° 299° (WNW) 21:34:50 437.568
TIGRISAT 21 Jan 21:37:20 21:40:10 16° 94° (E) 21:42:59 435.000
FUNcube-1 21 Jan 21:37:28 21:40:25 19° 266° (W) 21:43:23 145.935
DELFI C3 21 Jan 21:48:36 21:52:27 46° 261° (W) 21:56:19 145.870
AO-85 21 Jan 21:49:02 21:51:06 14° 48° (NE) 21:53:08 145.980
ANTELSAT 21 Jan 21:52:10 21:55:55 26° 96° (E) 21:59:43 437.575/2403.000
HUMSAT D 21 Jan 21:57:46 22:01:50 74° 258° (WSW) 22:05:59 437.325/437.525
PRISM 21 Jan 22:09:06 22:13:06 53° 286° (WNW) 22:17:04 437.425
ISS 21 Jan 22:26:19 22:29:12 28° 325° (NW) 22:32:05 145.825
CUBEBUG 1 21 Jan 22:27:08 22:29:46 16° 67° (ENE) 22:32:25 437.445
JAS-2 21 Jan 22:32:45 22:39:19 33° 96° (E) 22:46:09 435.910
AISAT 21 Jan 22:47:16 22:50:10 17° 67° (ENE) 22:53:05 437.250
UNISAT 6 21 Jan 22:59:45 23:04:06 51° 286° (WNW) 23:08:31 437.425
POPSAT HIP 1 21 Jan 23:01:56 23:03:35 12° 93° (E) 23:05:12 437.405
BY70-1 21 Jan 23:02:25 23:05:12 38° 262° (W) 23:08:12 436.1900
DUCHIFAT 1 21 Jan 23:10:30 23:12:28 13° 93° (E) 23:14:25 145.980
TIGRISAT 21 Jan 23:12:47 23:16:56 39° 287° (WNW) 23:21:09 435.000
ESTCUBE 1 21 Jan 23:14:05 23:18:36 84° 257° (WSW) 23:23:11 437.505/2401.250
NANOSAT C BR1 21 Jan 23:16:08 23:18:56 17° 94° (E) 23:21:43 145.865
VELOX 1 21 Jan 23:19:11 23:23:16 37° 72° (ENE) 23:27:21 145.980
50 SAT 21 Jan 23:21:21 23:24:16 24° 71° (ENE) 23:27:12 437.505
AO-85 21 Jan 23:27:58 23:31:42 44° 245° (WSW) 23:35:27 145.980
ANTELSAT 21 Jan 23:28:50 23:32:29 25° 290° (WNW) 23:36:13 437.575/2403.000
RS-15 21 Jan 23:34:06 23:45:51 81° 116° (ESE) 23:58:10 29.354- 29.394
PCSat 21 Jan 23:35:04 23:39:23 25° 107° (ESE) 23:43:44 145.827
SPROUT 21 Jan 23:36:24 23:40:23 40° 73° (ENE) 23:44:22 437.525
UKube-1 21 Jan 23:42:54 23:46:17 23° 69° (ENE) 23:49:40 .
DX 1 21 Jan 23:46:15 23:50:12 35° 72° (ENE) 23:54:11 434.975-435.025
CUBEBUG 1 22 Jan 00:01:31 00:05:41 40° 261° (W) 00:09:51 437.445
QB50P1 22 Jan 00:08:15 00:12:30 83° 105° (ESE) 00:16:43 145.935-145.965
POLYITAN 1 22 Jan 00:12:56 00:17:10 85° 286° (WNW) 00:21:25 437.675
QB50P2 22 Jan 00:14:15 00:18:28 76° 285° (WNW) 00:22:43 145.880/145.840
JAS-2 22 Jan 00:17:21 00:24:17 47° 290° (WNW) 00:31:40 435.910
AISAT 22 Jan 00:22:11 00:26:18 37° 261° (W) 00:30:26 437.250
YUBILEINY 22 Jan 00:30:38 00:38:03 29° 72° (ENE) 00:45:21 435.215
POPSAT HIP 1 22 Jan 00:35:30 00:39:33 46° 286° (WNW) 00:43:36 437.405
BEESAT 2 22 Jan 00:35:49 00:37:14 12° 46° (NE) 00:38:39 435.950
DUCHIFAT 1 22 Jan 00:44:20 00:48:18 42° 287° (WNW) 00:52:16 145.980
Cosmos 2504 22 Jan 00:47:22 00:51:15 15° 67° (ENE) 00:55:03 435.465 / 435.565
PHONESAT 2.4 22 Jan 00:47:39 00:49:45 35° 152° (SSE) 00:51:51 2401.200-2431.200
NANOSAT C BR1 22 Jan 00:50:55 00:54:41 32° 288° (WNW) 00:58:26 145.865
AIST 1 22 Jan 00:52:41 00:56:42 40° 79° (E) 01:00:42
50 SAT 22 Jan 00:55:10 00:57:25 16° 265° (W) 00:59:42 437.505
VELOX 1 22 Jan 00:56:55 00:59:48 17° 266° (W) 01:02:40 145.980
TISAT 1 22 Jan 00:58:36 01:02:36 48° 74° (ENE) 01:06:37 437.305
BUGSAT 1 22 Jan 01:12:14 01:16:12 58° 285° (WNW) 01:20:12 437.445
SPROUT 22 Jan 01:14:14 01:16:26 14° 267° (W) 01:18:39 437.525
Cosmos 2491 22 Jan 01:16:40 01:24:05 33° 85° (E) 01:31:30 435.465 / 435.565
PCSat 22 Jan 01:17:30 01:22:31 38° 302° (WNW) 01:27:34 145.827
UKube-1 22 Jan 01:18:31 01:22:08 26° 263° (W) 01:25:48 .
BEESAT 3 22 Jan 01:23:00 01:27:02 85° 63° (ENE) 01:31:00 437.485
DX 1 22 Jan 01:23:33 01:26:27 17° 265° (W) 01:29:22 434.975-435.025
RS-15 22 Jan 01:49:28 01:59:47 32° 320° (NW) 02:10:27 29.354- 29.394
ITUPSAT 1 22 Jan 01:52:07 01:56:27 36° 71° (ENE) 02:00:47 437.325
Oscar 19 22 Jan 02:00:25 02:05:37 88° 282° (WNW) 02:10:44 437.125/150
MOZHAYETS 4 22 Jan 02:08:15 02:10:47 15° 66° (ENE) 02:13:17
CUSAT 1 22 Jan 02:11:15 02:14:50 19° 81° (E) 02:19:01 437.405
BEESAT 2 22 Jan 02:11:25 02:15:26 65° 243° (WSW) 02:19:24 435.950
PHONESAT 2.4 22 Jan 02:21:37 02:23:40 31° 347° (NNW) 02:25:45 2401.200-2431.200
BEESAT 22 Jan 02:25:07 02:29:52 85° 78° (ENE) 02:34:39 436.000
YUBILEINY 22 Jan 02:26:41 02:35:09 54° 270° (W) 02:43:34 435.215
SWISSCUBE 22 Jan 02:26:57 02:31:41 82° 256° (WSW) 02:36:29 437.505
Gurwin Techsat 1B 22 Jan 02:27:45 02:33:06 88° 106° (ESE) 02:38:24 435.225
AIST 1 22 Jan 02:32:01 02:33:52 13° 274° (W) 02:35:41
TISAT 1 22 Jan 02:37:11 02:38:27 11° 268° (W) 02:39:44 437.305
Cosmos 2504 22 Jan 02:38:11 02:45:31 79° 265° (W) 02:52:38 435.465 / 435.565
M-CUBED/EXP-1 PRIME 22 Jan 02:43:48 02:47:01 20° 66° (ENE) 02:50:04 437.505
ITAMSAT 1 22 Jan 02:47:37 02:51:50 24° 96° (E) 02:56:01 435.822/435.867
Cosmos 2491 22 Jan 03:12:15 03:20:31 47° 282° (WNW) 03:28:52 435.465 / 435.565
AUBIESAT-1 22 Jan 03:18:06 03:22:06 39° 69° (ENE) 03:25:51 437.475
DANDE 22 Jan 03:19:22 03:21:48 16° 82° (E) 03:24:37 436.750
ISS 22 Jan 03:20:55 03:22:22 12° 25° (NNE) 03:23:50 145.825
STARS 22 Jan 03:24:34 03:26:39 13° 65° (ENE) 03:28:44 437.465
ITUPSAT 1 22 Jan 03:30:53 03:34:20 20° 265° (W) 03:37:48 437.325
MOZHAYETS 4 22 Jan 03:43:05 03:47:29 47° 261° (W) 03:51:55
CUSAT 1 22 Jan 03:51:02 03:55:55 48° 285° (WNW) 04:02:15 437.405
AO-7 22 Jan 03:53:07 04:01:24 63° 104° (ESE) 04:09:37 29.400- 29.500
PHONESAT 2.4 22 Jan 03:56:04 03:57:56 22° 4° (N) 03:59:47 2401.200-2431.200
KKS-1 22 Jan 04:09:53 04:14:19 78° 258° (WSW) 04:18:46 437.445
Gurwin Techsat 1B 22 Jan 04:11:14 04:12:14 10° 299° (WNW) 04:13:13 435.225
RS-15 22 Jan 04:12:00 04:18:13 15° 355° (N) 04:24:28 29.354- 29.394
M-CUBED/EXP-1 PRIME 22 Jan 04:17:21 04:21:16 31° 257° (WSW) 04:24:59 437.505
AIST 2 22 Jan 04:24:30 04:28:43 59° 59° (ENE) 04:32:52 435.215
ITAMSAT 1 22 Jan 04:26:37 04:31:18 35° 290° (WNW) 04:35:59 435.822/435.867
CUBESAT XI-V 22 Jan 04:33:10 04:37:51 82° 77° (ENE) 04:42:36 437.345
AUBIESAT-1 22 Jan 04:54:02 04:56:32 15° 260° (W) 04:58:56 437.475
ISS 22 Jan 04:56:02 04:59:17 87° 48° (NE) 05:02:31 145.825
STARS 22 Jan 04:58:19 05:02:32 48° 260° (W) 05:06:47 437.465
DANDE 22 Jan 05:00:31 05:03:56 30° 289° (WNW) 05:08:21 436.750
GOMX 1 22 Jan 05:10:44 05:13:41 18° 93° (E) 05:16:34 467.674
HORYU 2 22 Jan 05:13:55 05:17:32 24° 96° (E) 05:21:10 437.375
BRITE-PL 22 Jan 05:15:02 05:19:46 64° 100° (E) 05:24:07 437.365/2234.400
GONETS M04 22 Jan 05:20:38 05:24:13 13° 63° (ENE) 05:27:47
O/OREOS (USA 219) 22 Jan 05:22:13 05:25:45 23° 102° (ESE) 05:29:17 437.305
PHONESAT 2.4 22 Jan 05:29:51 05:32:05 63° 20° (NNE) 05:34:17 2401.200-2431.200
DOVE 4 22 Jan 05:41:01 05:43:08 14° 93° (E) 05:45:15 437.250
AO-7 22 Jan 05:46:53 05:53:32 28° 301° (WNW) 06:00:10 29.400- 29.500
CUTE-I 22 Jan 05:50:20 05:54:27 22° 95° (E) 05:58:33 437.470
AIST 2 22 Jan 06:05:52 06:06:37 10° 253° (WSW) 06:07:22 435.215
SO-50 22 Jan 06:17:49 06:20:13 14° 108° (ESE) 06:22:36 436.795
RS-15 22 Jan 06:28:12 06:37:37 24° 32° (NNE) 06:46:48 29.354- 29.394
Cubesat XI-IV 22 Jan 06:33:14 06:38:31 59° 101° (E) 06:43:47 437.490
NOAA 15 22 Jan 06:35:31 06:40:49 66° 102° (ESE) 06:46:04 137.62
LilacSat-2 22 Jan 06:36:26 06:40:20 87° 107° (ESE) 06:44:12 437.200
Cosmos 2499 22 Jan 06:45:39 06:52:39 59° 80° (E) 06:59:37 435.465 / 435.565
GOMX 1 22 Jan 06:48:05 06:51:51 29° 289° (WNW) 06:55:28 467.674
HORYU 2 22 Jan 06:50:17 06:53:59 26° 290° (WNW) 06:57:42 437.375
NOAA 18 22 Jan 06:52:50 06:58:04 46° 100° (E) 07:03:18 137.9125
CINEMA 3 22 Jan 06:54:57 06:58:14 22° 96° (E) 07:01:37 145.822/145.860
BRITE-PL 22 Jan 06:56:12 06:57:30 11° 298° (WNW) 06:58:47 437.365/2234.400
O/OREOS (USA 219) 22 Jan 07:01:11 07:04:59 27° 297° (WNW) 07:08:48 437.305
STRAND 1 22 Jan 07:03:02 07:08:07 87° 73° (ENE) 07:13:15 437.568
PHONESAT 2.4 22 Jan 07:04:34 07:05:46 13° 213° (SSW) 07:06:57 2401.200-2431.200
GONETS M04 22 Jan 07:13:40 07:22:32 76° 82° (E) 07:31:23
DOVE 4 22 Jan 07:17:10 07:21:00 37° 287° (WNW) 07:24:48 437.250
HO-68 22 Jan 07:18:02 07:24:16 31° 97° (E) 07:30:25 435.675
CUTE-I 22 Jan 07:29:38 07:34:34 39° 289° (WNW) 07:39:30 437.470
CUBEBUG 2 22 Jan 07:37:28 07:40:03 15° 94° (E) 07:42:39 437.445
CUTE 1.7 + AOD 2 22 Jan 07:41:46 07:45:52 42° 98° (E) 07:49:55 437.475
SO-50 22 Jan 07:55:33 08:00:12 56° 302° (WNW) 08:04:48 436.795
UWE-3 22 Jan 08:01:25 08:04:26 18° 94° (E) 08:07:30 435.000/436.395/437.385
CANX-2 22 Jan 08:11:17 08:15:35 70° 284° (WNW) 08:19:50 2200.000
Cubesat XI-IV 22 Jan 08:14:55 08:18:03 16° 296° (WNW) 08:21:12 437.490
ZACube-1 22 Jan 08:16:06 08:18:43 15° 93° (E) 08:21:20 437.345
NOAA 15 22 Jan 08:17:14 08:19:58 14° 297° (WNW) 08:22:43 137.62
SEEDS 22 Jan 08:18:13 08:22:28 77° 100° (E) 08:26:42 437.485
COMPASS 1 22 Jan 08:19:55 08:24:01 49° 99° (E) 08:28:04 437.405
PCSat 22 Jan 08:26:40 08:29:04 13° 46° (NE) 08:31:29 145.827
AAUSAT CUBESAT 2 22 Jan 08:29:12 08:33:14 47° 99° (E) 08:37:15 437.432
CINEMA 3 22 Jan 08:31:48 08:35:19 26° 288° (WNW) 08:38:54 145.822/145.860
NOAA 18 22 Jan 08:34:25 08:38:21 21° 295° (WNW) 08:42:17 137.9125
Cosmos 2499 22 Jan 08:40:23 08:45:03 19° 277° (W) 08:49:44 435.465 / 435.565
RS-15 22 Jan 08:40:23 08:52:46 73° 58° (ENE) 09:04:35 29.354- 29.394
Oscar 11 22 Jan 08:47:52 08:51:39 28° 97° (E) 08:55:24 145.826/435.025
ANTELSAT 22 Jan 08:49:22 08:51:52 15° 67° (ENE) 08:54:20 437.575/2403.000
PRISM 22 Jan 08:54:51 08:58:59 68° 75° (ENE) 09:03:08 437.425
HO-68 22 Jan 09:05:20 09:12:02 44° 292° (WNW) 09:18:42 435.675
GONETS M04 22 Jan 09:12:35 09:18:18 19° 280° (W) 09:24:02
CUBEBUG 2 22 Jan 09:12:39 09:16:45 41° 287° (WNW) 09:20:59 437.445
CUTE 1.7 + AOD 2 22 Jan 09:18:58 09:21:18 15° 293° (WNW) 09:23:38 437.475
FUNcube-1 22 Jan 09:26:24 09:30:50 87° 288° (WNW) 09:35:21 145.935
DELFI C3 22 Jan 09:29:02 09:32:22 25° 96° (E) 09:35:40 145.870
UWE-3 22 Jan 09:36:55 09:40:55 35° 288° (WNW) 09:45:02 435.000/436.395/437.385
HUMSAT D 22 Jan 09:44:27 09:47:49 22° 95° (E) 09:51:09 437.325/437.525
ZACube-1 22 Jan 09:50:57 09:55:06 41° 287° (WNW) 09:59:20 437.345
UNISAT 6 22 Jan 09:55:25 09:59:40 85° 258° (WSW) 10:03:57 437.425
COMPASS 1 22 Jan 09:57:29 09:59:04 12° 294° (WNW) 10:00:39 437.405
AAUSAT CUBESAT 2 22 Jan 10:06:34 10:08:15 12° 294° (WNW) 10:09:54 437.432
PCSat 22 Jan 10:07:46 10:13:13 89° 65° (ENE) 10:18:38 145.827
TIGRISAT 22 Jan 10:08:11 10:12:23 64° 259° (W) 10:16:36 435.000
ANTELSAT 22 Jan 10:24:16 10:28:14 38° 262° (W) 10:32:12 437.575/2403.000
Oscar 11 22 Jan 10:24:17 10:27:35 21° 291° (WNW) 10:30:52 145.826/435.025
JAS-2 22 Jan 10:26:59 10:32:11 59° 73° (ENE) 10:37:53 435.910
RS-15 22 Jan 10:54:25 11:04:03 29° 258° (WSW) 11:13:23 29.354- 29.394
QB50P1 22 Jan 10:57:38 11:01:32 39° 73° (ENE) 11:05:27 145.935-145.965
POLYITAN 1 22 Jan 11:02:23 11:06:22 45° 74° (ENE) 11:10:23 437.675
QB50P2 22 Jan 11:03:37 11:07:41 51° 74° (ENE) 11:11:46 145.880/145.840
DELFI C3 22 Jan 11:04:06 11:06:59 19° 290° (WNW) 11:09:50 145.870
ESTCUBE 1 22 Jan 11:10:04 11:13:48 25° 96° (E) 11:17:31 437.505/2401.250
HUMSAT D 22 Jan 11:19:44 11:23:20 27° 289° (WNW) 11:26:56 437.325/437.525
POPSAT HIP 1 22 Jan 11:24:26 11:28:38 85° 77° (ENE) 11:32:50 437.405
DUCHIFAT 1 22 Jan 11:32:34 11:36:44 90° 259° (W) 11:40:54 145.980
Cosmos 2491 22 Jan 11:32:36 11:36:05 13° 63° (ENE) 11:39:32 435.465 / 435.565
NANOSAT C BR1 22 Jan 11:39:18 11:43:26 67° 258° (WSW) 11:47:36 145.865
Oscar 19 22 Jan 11:39:25 11:40:42 11° 61° (ENE) 11:42:00 437.125/150
BY70-1 22 Jan 11:39:33 11:42:39 50° 285° (WNW) 11:45:32 436.1900
CUBEBUG 1 22 Jan 11:52:48 11:56:55 43° 99° (E) 12:01:00 437.445
BUGSAT 1 22 Jan 11:58:37 12:02:37 60° 75° (ENE) 12:06:35 437.445
Gurwin Techsat 1B 22 Jan 12:10:02 12:11:53 12° 62° (ENE) 12:13:44 435.225
AISAT 22 Jan 12:14:48 12:19:04 48° 100° (E) 12:23:17 437.250
JAS-2 22 Jan 12:15:06 12:17:52 14° 271° (W) 12:20:44 435.910
50 SAT 22 Jan 12:22:09 12:25:30 39° 99° (E) 12:28:49 437.505
QB50P1 22 Jan 12:35:18 12:37:27 14° 267° (W) 12:39:35 145.935-145.965
POLYITAN 1 22 Jan 12:40:50 12:42:21 12° 268° (W) 12:43:55 437.675
QB50P2 22 Jan 12:42:56 12:43:44 10° 268° (W) 12:44:33 145.880/145.840
CUSAT 1 22 Jan 12:46:42 12:51:49 18° 64° (ENE) 12:56:37 437.405
ESTCUBE 1 22 Jan 12:46:45 12:50:29 26° 290° (WNW) 12:54:12 437.505/2401.250
VELOX 1 22 Jan 12:47:59 12:52:23 71° 284° (WNW) 12:56:43 145.980
SPROUT 22 Jan 13:00:27 13:04:40 66° 284° (WNW) 13:08:53 437.525
AO-7 22 Jan 13:02:17 13:05:30 13° 50° (NE) 13:08:44 29.400- 29.500
UKube-1 22 Jan 13:07:34 13:11:50 61° 102° (ESE) 13:16:04 .
DX 1 22 Jan 13:12:50 13:17:10 81° 285° (WNW) 13:21:29 434.975-435.025
Oscar 19 22 Jan 13:14:04 13:19:16 83° 257° (WSW) 13:24:30 437.125/150
AIST 1 22 Jan 13:18:55 13:22:39 28° 90° (E) 13:26:23
Cosmos 2504 22 Jan 13:22:42 13:27:21 16° 80° (E) 13:31:53 435.465 / 435.565
JUGNU 22 Jan 13:24:39 13:27:34 14° 171° (S) 13:30:29 437.505
Cosmos 2491 22 Jan 13:25:35 13:34:25 76° 82° (E) 13:43:14 435.465 / 435.565
YUBILEINY 22 Jan 13:27:39 13:35:27 37° 86° (E) 13:43:16 435.215
CUBEBUG 1 22 Jan 13:30:30 13:32:48 14° 294° (WNW) 13:35:05 437.445
AO-85 22 Jan 13:38:33 13:43:21 74° 299° (WNW) 13:47:48 145.980
Gurwin Techsat 1B 22 Jan 13:45:47 13:51:06 79° 257° (WSW) 13:56:26 435.225
AISAT 22 Jan 13:52:59 13:55:04 13° 295° (WNW) 13:57:08 437.250
DANDE 22 Jan 13:56:45 14:03:08 25° 70° (ENE) 14:09:38 436.750
ITUPSAT 1 22 Jan 13:57:43 13:59:16 11° 92° (E) 14:00:48 437.325
ITAMSAT 1 22 Jan 14:02:46 14:07:08 28° 68° (ENE) 14:11:30 435.822/435.867
